Flag for Morocco Weather past 2 weeks in Casablanca, Morocco

Now
72 °F

Passing clouds.


Feels Like: 72 °F
Forecast: 67 / 77 °F
Wind: N/A

Location: Casablanca Airport

Current Time: Sep 22, 2014 at 9:25:36 PM

Latest Report: Sep 22, 2014 at 9:00 PM


Visibility: N/A

Pressure: 30.01 "Hg

Humidity: 78%

Dew point: 64 °F

Location of CasablancaLocation

Historic Weather in Casablanca — Graph

°F

Casablanca temperature yesterday

Maximum temperature yesterday: 75 °F (at 2:00 PM)
Minimum temperature yesterday: 68 °F (at 1:00 AM)
Average temperature yesterday: 71 °F

Past Weeks' High & Low Weather Summary

 TemperatureHumidityPressure
High82 °F (Sep 16, 12:00 PM)100% (Sep 14, 9:00 AM)30.04 "Hg (Sep 14, 9:00 AM)
Low68 °F (Sep 10, 7:00 AM)54% (Sep 16, 10:00 AM)29.59 "Hg (Sep 15, 5:00 PM)
Average75 °F78%29.94 "Hg
* Reported Sep 7 8:00 PM — Sep 22 8:00 PM, Casablanca, Weather by CustomWeather, © 2014

Note: Actual official high and low records may vary slightly from our data, if they occured in-between our weather recording intervals... More about our weather records

Advertising

Casablanca weather history for previous 24 hours

 ConditionsComfort  
Time TempWeatherWind HumidityBarometerVisibility
8:00 PM
Sep 22
72 °FPassing clouds.N/A83%29.98 "HgN/A
7:00 PM73 °FScattered clouds.N/A78%29.98 "HgN/A
6:00 PM75 °FScattered clouds.N/A78%30.01 "HgN/A
5:00 PM75 °FScattered clouds.N/A78%30.01 "HgN/A
4:00 PM77 °FPassing clouds.N/A74%30.01 "HgN/A
3:00 PM77 °FPassing clouds.N/A69%30.01 "HgN/A
2:00 PM77 °FPassing clouds.N/A65%30.01 "HgN/A
1:00 PM77 °FPassing clouds.N/A74%30.04 "HgN/A
12:00 PM75 °FPassing clouds.N/A74%30.04 "HgN/A
11:00 AM73 °FScattered clouds.N/A83%30.04 "HgN/A
10:00 AM73 °FScattered clouds.N/A78%30.01 "HgN/A
9:00 AM73 °FPassing clouds.N/A83%30.01 "HgN/A
8:00 AM68 °FPassing clouds.N/A100%30.01 "HgN/A
7:00 AM68 °FPassing clouds.N/A100%29.98 "HgN/A
6:00 AM70 °FPassing clouds.No wind94%29.98 "HgN/A
3:00 AM72 °FPassing clouds.No wind94%29.98 "HgN/A
2:00 AM72 °FPassing clouds.No wind94%29.98 "HgN/A
1:00 AM72 °FPassing clouds.No wind88%29.98 "HgN/A
12:00 AM72 °FPassing clouds.No wind88%30.01 "HgN/A
11:00 PM
Sep 21
72 °FPassing clouds.No wind88%30.01 "HgN/A
10:00 PM72 °FPassing clouds.No wind88%30.01 "HgN/A
9:00 PM72 °FPassing clouds.No wind94%29.98 "HgN/A
Weather by CustomWeather, © 2014

See weather overviewHow to use our weather pages